Year,Month,Day,Hour,Minute,Value (Times are PST for windspeed in km/hr)
2010,05,05,00,00,7.20
2010,05,05,00,01,7.30
2010,05,05,00,02,9.00
2010,05,05,00,03,8.20
2010,05,05,00,04,7.50
2010,05,05,00,05,6.10
2010,05,05,00,06,5.00
2010,05,05,00,07,6.80
2010,05,05,00,08,6.80
2010,05,05,00,09,7.50
2010,05,05,00,10,7.40
2010,05,05,00,11,8.10
2010,05,05,00,12,6.50
2010,05,05,00,13,5.60
2010,05,05,00,14,5.30
2010,05,05,00,15,5.70
2010,05,05,00,16,6.70
2010,05,05,00,17,7.00
2010,05,05,00,18,5.90
2010,05,05,00,19,6.80
2010,05,05,00,20,5.50
2010,05,05,00,21,5.80
2010,05,05,00,22,6.90
2010,05,05,00,23,4.00
2010,05,05,00,24,4.00
2010,05,05,00,25,4.30
2010,05,05,00,26,5.70
2010,05,05,00,27,4.70
2010,05,05,00,28,4.80
2010,05,05,00,29,5.30
2010,05,05,00,30,7.10
2010,05,05,00,31,6.20
2010,05,05,00,32,6.30
2010,05,05,00,33,5.10
2010,05,05,00,34,5.90
2010,05,05,00,35,6.70
2010,05,05,00,36,3.50
2010,05,05,00,37,3.90
2010,05,05,00,38,3.90
2010,05,05,00,39,3.30
2010,05,05,00,40,4.10
2010,05,05,00,41,5.20
2010,05,05,00,42,2.00
2010,05,05,00,43,5.60
2010,05,05,00,44,7.10
2010,05,05,00,45,5.50
2010,05,05,00,46,7.00
2010,05,05,00,47,4.30
2010,05,05,00,48,4.70
2010,05,05,00,49,4.40
2010,05,05,00,50,3.40
2010,05,05,00,51,4.20
2010,05,05,00,52,5.20
2010,05,05,00,53,3.90
2010,05,05,00,54,5.80
2010,05,05,00,55,7.10
2010,05,05,00,56,7.20
2010,05,05,00,57,4.10
2010,05,05,00,58,3.20
2010,05,05,00,59,5.10
2010,05,05,01,00,5.10
2010,05,05,01,01,4.90
2010,05,05,01,02,6.40
2010,05,05,01,03,7.20
2010,05,05,01,04,8.60
2010,05,05,01,05,8.60
2010,05,05,01,06,6.80
2010,05,05,01,07,6.00
2010,05,05,01,08,6.40
2010,05,05,01,09,6.30
2010,05,05,01,10,5.40
2010,05,05,01,11,5.80
2010,05,05,01,12,7.30
2010,05,05,01,13,7.30
2010,05,05,01,14,6.30
2010,05,05,01,15,4.00
2010,05,05,01,16,5.80
2010,05,05,01,17,4.90
2010,05,05,01,18,4.20
2010,05,05,01,19,4.70
2010,05,05,01,20,5.60
2010,05,05,01,21,3.30
2010,05,05,01,22,5.10
2010,05,05,01,23,3.90
2010,05,05,01,24,2.80
2010,05,05,01,25,3.00
2010,05,05,01,26,0.70
2010,05,05,01,27,2.40
2010,05,05,01,28,0.70
2010,05,05,01,29,1.90
2010,05,05,01,30,3.00
2010,05,05,01,31,1.90
2010,05,05,01,32,2.90
2010,05,05,01,33,5.30
2010,05,05,01,34,5.40
2010,05,05,01,35,5.40
2010,05,05,01,36,6.00
2010,05,05,01,37,5.00
2010,05,05,01,38,5.20
2010,05,05,01,39,6.00
2010,05,05,01,40,4.60
2010,05,05,01,41,4.00
2010,05,05,01,42,4.70
2010,05,05,01,43,4.70
2010,05,05,01,44,4.30
2010,05,05,01,45,3.50
2010,05,05,01,46,1.10
2010,05,05,01,47,0.20
2010,05,05,01,48,0.90
2010,05,05,01,49,0.60
2010,05,05,01,50,0.00
2010,05,05,01,51,1.00
2010,05,05,01,52,1.10
2010,05,05,01,53,2.30
2010,05,05,01,54,3.60
2010,05,05,01,55,3.30
2010,05,05,01,56,3.30
2010,05,05,01,57,1.70
2010,05,05,01,58,0.00
2010,05,05,01,59,0.00
2010,05,05,02,00,2.00
2010,05,05,02,01,1.70
2010,05,05,02,02,1.10
2010,05,05,02,03,0.10
2010,05,05,02,04,1.50
2010,05,05,02,05,0.10
2010,05,05,02,06,2.60
2010,05,05,02,07,2.90
2010,05,05,02,08,2.30
2010,05,05,02,09,3.50
2010,05,05,02,10,4.00
2010,05,05,02,11,4.80
2010,05,05,02,12,4.00
2010,05,05,02,13,2.80
2010,05,05,02,14,1.80
2010,05,05,02,15,4.90
2010,05,05,02,16,4.10
2010,05,05,02,17,4.50
2010,05,05,02,18,4.10
2010,05,05,02,19,3.10
2010,05,05,02,20,4.30
2010,05,05,02,21,7.00
2010,05,05,02,22,4.90
2010,05,05,02,23,4.60
2010,05,05,02,24,3.90
2010,05,05,02,25,3.60
2010,05,05,02,26,3.70
2010,05,05,02,27,1.60
2010,05,05,02,28,0.60
2010,05,05,02,29,1.90
2010,05,05,02,30,4.00
2010,05,05,02,31,3.40
2010,05,05,02,32,3.60
2010,05,05,02,33,3.90
2010,05,05,02,34,2.20
2010,05,05,02,35,1.70
2010,05,05,02,36,4.60
2010,05,05,02,37,4.60
2010,05,05,02,38,5.30
2010,05,05,02,39,6.60
2010,05,05,02,40,6.50
2010,05,05,02,41,7.00
2010,05,05,02,42,7.10
2010,05,05,02,43,7.50
2010,05,05,02,44,7.40
2010,05,05,02,45,8.30
2010,05,05,02,46,8.90
2010,05,05,02,47,5.80
2010,05,05,02,48,5.60
2010,05,05,02,49,6.80
2010,05,05,02,50,6.10
2010,05,05,02,51,5.70
2010,05,05,02,52,4.70
2010,05,05,02,53,4.10
2010,05,05,02,54,2.70
2010,05,05,02,55,3.10
2010,05,05,02,56,2.90
2010,05,05,02,57,4.80
2010,05,05,02,58,6.40
2010,05,05,02,59,6.90
2010,05,05,03,00,5.20
2010,05,05,03,01,4.50
2010,05,05,03,02,3.00
2010,05,05,03,03,2.40
2010,05,05,03,04,4.20
2010,05,05,03,05,5.80
2010,05,05,03,06,2.70
2010,05,05,03,07,2.50
2010,05,05,03,08,1.50
2010,05,05,03,09,3.00
2010,05,05,03,10,0.60
2010,05,05,03,11,2.60
2010,05,05,03,12,1.20
2010,05,05,03,13,3.60
2010,05,05,03,14,3.90
2010,05,05,03,15,4.40
2010,05,05,03,16,3.50
2010,05,05,03,17,3.00
2010,05,05,03,18,2.80
2010,05,05,03,19,3.60
2010,05,05,03,20,2.90
2010,05,05,03,21,2.20
2010,05,05,03,22,3.10
2010,05,05,03,23,2.50
2010,05,05,03,24,1.90
2010,05,05,03,25,1.10
2010,05,05,03,26,0.00
2010,05,05,03,27,0.00
2010,05,05,03,28,2.60
2010,05,05,03,29,3.00
2010,05,05,03,30,5.10
2010,05,05,03,31,4.00
2010,05,05,03,32,4.70
2010,05,05,03,33,5.10
2010,05,05,03,34,4.90
2010,05,05,03,35,3.90
2010,05,05,03,36,3.70
2010,05,05,03,37,5.40
2010,05,05,03,38,5.70
2010,05,05,03,39,4.70
2010,05,05,03,40,5.30
2010,05,05,03,41,5.30
2010,05,05,03,42,4.50
2010,05,05,03,43,4.90
2010,05,05,03,44,4.80
2010,05,05,03,45,4.10
2010,05,05,03,46,3.60
2010,05,05,03,47,3.80
2010,05,05,03,48,4.70
2010,05,05,03,49,4.90
2010,05,05,03,50,4.90
2010,05,05,03,51,5.90
2010,05,05,03,52,5.10
2010,05,05,03,53,5.10
2010,05,05,03,54,6.00
2010,05,05,03,55,6.20
2010,05,05,03,56,4.90
2010,05,05,03,57,5.60
2010,05,05,03,58,3.20
2010,05,05,03,59,4.30
2010,05,05,04,00,6.40
2010,05,05,04,01,6.90
2010,05,05,04,02,7.50
2010,05,05,04,03,7.90
2010,05,05,04,04,8.20
2010,05,05,04,05,8.40
2010,05,05,04,06,6.80
2010,05,05,04,07,6.80
2010,05,05,04,08,6.90
2010,05,05,04,09,6.70
2010,05,05,04,10,7.30
2010,05,05,04,11,6.70
2010,05,05,04,12,6.40
2010,05,05,04,13,6.90
2010,05,05,04,14,6.50
2010,05,05,04,15,6.60
2010,05,05,04,16,8.10
2010,05,05,04,17,8.50
2010,05,05,04,18,8.30
2010,05,05,04,19,7.20
2010,05,05,04,20,6.80
2010,05,05,04,21,7.40
2010,05,05,04,22,6.40
2010,05,05,04,23,5.70
2010,05,05,04,24,4.70
2010,05,05,04,25,4.30
2010,05,05,04,26,4.70
2010,05,05,04,27,3.70
2010,05,05,04,28,3.40
2010,05,05,04,29,2.30
2010,05,05,04,30,4.20
2010,05,05,04,31,3.40
2010,05,05,04,32,4.70
2010,05,05,04,33,3.40
2010,05,05,04,34,3.20
2010,05,05,04,35,3.70
2010,05,05,04,36,2.70
2010,05,05,04,37,1.20
2010,05,05,04,38,0.20
2010,05,05,04,39,0.10
2010,05,05,04,40,0.00
2010,05,05,04,41,1.60
2010,05,05,04,42,0.40
2010,05,05,04,43,2.50
2010,05,05,04,44,3.10
2010,05,05,04,45,2.70
2010,05,05,04,46,3.00
2010,05,05,04,47,3.30
2010,05,05,04,48,2.70
2010,05,05,04,49,3.00
2010,05,05,04,50,1.60
2010,05,05,04,51,3.10
2010,05,05,04,52,3.70
2010,05,05,04,53,4.50
2010,05,05,04,54,5.90
2010,05,05,04,55,6.80
2010,05,05,04,56,5.40
2010,05,05,04,57,5.40
2010,05,05,04,58,6.40
2010,05,05,04,59,6.10
2010,05,05,05,00,6.60
2010,05,05,05,01,8.10
2010,05,05,05,02,10.10
2010,05,05,05,03,9.70
2010,05,05,05,04,12.30
2010,05,05,05,05,8.50
2010,05,05,05,06,10.10
2010,05,05,05,07,8.70
2010,05,05,05,08,8.60
2010,05,05,05,09,7.10
2010,05,05,05,10,8.20
2010,05,05,05,11,6.40
2010,05,05,05,12,6.40
2010,05,05,05,13,6.40
2010,05,05,05,14,6.40
2010,05,05,05,15,5.60
2010,05,05,05,16,5.10
2010,05,05,05,17,5.80
2010,05,05,05,18,3.30
2010,05,05,05,19,5.80
2010,05,05,05,20,6.80
2010,05,05,05,21,7.00
2010,05,05,05,22,7.00
2010,05,05,05,23,5.70
2010,05,05,05,24,5.50
2010,05,05,05,25,5.00
2010,05,05,05,26,4.90
2010,05,05,05,27,6.00
2010,05,05,05,28,5.90
2010,05,05,05,29,5.30
2010,05,05,05,30,4.80
2010,05,05,05,31,4.40
2010,05,05,05,32,4.80
2010,05,05,05,33,3.50
2010,05,05,05,34,3.90
2010,05,05,05,35,5.30
2010,05,05,05,36,5.00
2010,05,05,05,37,4.80
2010,05,05,05,38,5.10
2010,05,05,05,39,4.30
2010,05,05,05,40,4.50
2010,05,05,05,41,4.60
2010,05,05,05,42,5.60
2010,05,05,05,43,5.00
2010,05,05,05,44,5.10
2010,05,05,05,45,4.30
2010,05,05,05,46,6.40
2010,05,05,05,47,5.10
2010,05,05,05,48,3.60
2010,05,05,05,49,1.70
2010,05,05,05,50,1.30
2010,05,05,05,51,4.50
2010,05,05,05,52,2.10
2010,05,05,05,53,4.20
2010,05,05,05,54,4.80
2010,05,05,05,55,7.70
2010,05,05,05,56,7.80
2010,05,05,05,57,7.10
2010,05,05,05,58,6.40
2010,05,05,05,59,6.90
2010,05,05,06,00,8.20
2010,05,05,06,01,5.10
2010,05,05,06,02,5.90
2010,05,05,06,03,5.60
2010,05,05,06,04,6.30
2010,05,05,06,05,4.20
2010,05,05,06,06,4.60
2010,05,05,06,07,3.00
2010,05,05,06,08,1.30
2010,05,05,06,09,1.80
2010,05,05,06,10,2.90
2010,05,05,06,11,4.90
2010,05,05,06,12,5.10
2010,05,05,06,13,6.10
2010,05,05,06,14,6.00
2010,05,05,06,15,6.50
2010,05,05,06,16,6.90
2010,05,05,06,17,6.10
2010,05,05,06,18,4.20
2010,05,05,06,19,3.30
2010,05,05,06,20,3.50
2010,05,05,06,21,2.90
2010,05,05,06,22,1.60
2010,05,05,06,23,2.20
2010,05,05,06,24,2.40
2010,05,05,06,25,1.90
2010,05,05,06,26,4.00
2010,05,05,06,27,5.60
2010,05,05,06,28,6.10
2010,05,05,06,29,6.30
2010,05,05,06,30,5.90
2010,05,05,06,31,4.10
2010,05,05,06,32,5.10
2010,05,05,06,33,4.60
2010,05,05,06,34,5.20
2010,05,05,06,35,5.10
2010,05,05,06,36,5.40
2010,05,05,06,37,7.10
2010,05,05,06,38,5.10
2010,05,05,06,39,5.90
2010,05,05,06,40,5.80
2010,05,05,06,41,6.80
2010,05,05,06,42,5.40
2010,05,05,06,43,5.20
2010,05,05,06,44,5.40
2010,05,05,06,45,4.40
2010,05,05,06,46,3.20
2010,05,05,06,47,4.10
2010,05,05,06,48,4.60
2010,05,05,06,49,2.50
2010,05,05,06,50,0.60
2010,05,05,06,51,0.00
2010,05,05,06,52,0.00
2010,05,05,06,53,0.00
2010,05,05,06,54,0.00
2010,05,05,06,55,0.00
2010,05,05,06,56,1.00
2010,05,05,06,57,3.30
2010,05,05,06,58,3.20
2010,05,05,06,59,4.10
2010,05,05,07,00,4.30
2010,05,05,07,01,4.10
2010,05,05,07,02,3.30
2010,05,05,07,03,3.20
2010,05,05,07,04,4.80
2010,05,05,07,05,3.30
2010,05,05,07,06,4.80
2010,05,05,07,07,4.50
2010,05,05,07,08,5.20
2010,05,05,07,09,6.70
2010,05,05,07,10,5.50
2010,05,05,07,11,3.50
2010,05,05,07,12,5.70
2010,05,05,07,13,7.70
2010,05,05,07,14,6.70
2010,05,05,07,15,6.20
2010,05,05,07,16,5.60
2010,05,05,07,17,6.80
2010,05,05,07,18,6.70
2010,05,05,07,19,6.30
2010,05,05,07,20,6.00
2010,05,05,07,21,7.20
2010,05,05,07,22,5.80
2010,05,05,07,23,5.40
2010,05,05,07,24,4.40
2010,05,05,07,25,3.80
2010,05,05,07,26,1.90
2010,05,05,07,27,0.00
2010,05,05,07,28,0.00
2010,05,05,07,29,0.60
2010,05,05,07,30,0.20
2010,05,05,07,31,1.90
2010,05,05,07,32,0.10
2010,05,05,07,33,0.00
2010,05,05,07,34,0.00
2010,05,05,07,35,0.00
2010,05,05,07,36,0.00
2010,05,05,07,37,0.00
2010,05,05,07,38,0.00
2010,05,05,07,39,0.00
2010,05,05,07,40,0.00
2010,05,05,07,41,0.00
2010,05,05,07,42,0.00
2010,05,05,07,43,0.00
2010,05,05,07,44,0.00
2010,05,05,07,45,0.00
2010,05,05,07,46,0.00
2010,05,05,07,47,0.00
2010,05,05,07,48,0.00
2010,05,05,07,49,0.00
2010,05,05,07,50,0.00
2010,05,05,07,51,0.80
2010,05,05,07,52,2.40
2010,05,05,07,53,0.60
2010,05,05,07,54,0.00
2010,05,05,07,55,0.00
2010,05,05,07,56,0.00
2010,05,05,07,57,0.00
2010,05,05,07,58,0.00
2010,05,05,07,59,0.00
2010,05,05,08,00,0.00
2010,05,05,08,01,0.00
2010,05,05,08,02,0.30
2010,05,05,08,03,0.70
2010,05,05,08,04,0.00
2010,05,05,08,05,0.00
2010,05,05,08,06,0.00
2010,05,05,08,07,0.00
2010,05,05,08,08,0.00
2010,05,05,08,09,0.00
2010,05,05,08,10,0.00
2010,05,05,08,11,0.00
2010,05,05,08,12,0.00
2010,05,05,08,13,0.10
2010,05,05,08,14,2.90
2010,05,05,08,15,2.30
2010,05,05,08,16,2.40
2010,05,05,08,17,0.70
2010,05,05,08,18,2.50
2010,05,05,08,19,0.80
2010,05,05,08,20,0.30
2010,05,05,08,21,4.10
2010,05,05,08,22,2.50
2010,05,05,08,23,3.40
2010,05,05,08,24,0.10
2010,05,05,08,25,0.20
2010,05,05,08,26,0.50
2010,05,05,08,27,0.00
2010,05,05,08,28,0.00
2010,05,05,08,29,1.40
2010,05,05,08,30,0.20
2010,05,05,08,31,0.00
2010,05,05,08,32,0.10
2010,05,05,08,33,0.00
2010,05,05,08,34,0.00
2010,05,05,08,35,0.00
2010,05,05,08,36,0.00
2010,05,05,08,37,0.00
2010,05,05,08,38,0.00
2010,05,05,08,39,0.00
2010,05,05,08,40,0.00
2010,05,05,08,41,0.10
2010,05,05,08,42,0.00
2010,05,05,08,43,0.00
2010,05,05,08,44,0.00
2010,05,05,08,45,0.00
2010,05,05,08,46,0.70
2010,05,05,08,47,0.40
2010,05,05,08,48,0.00
2010,05,05,08,49,0.10
2010,05,05,08,50,1.10
2010,05,05,08,51,0.50
2010,05,05,08,52,1.30
2010,05,05,08,53,2.10
2010,05,05,08,54,3.40
2010,05,05,08,55,1.40
2010,05,05,08,56,0.60
2010,05,05,08,57,0.00
2010,05,05,08,58,0.00
2010,05,05,08,59,0.10
2010,05,05,09,00,0.00
2010,05,05,09,01,1.60
2010,05,05,09,02,0.30
2010,05,05,09,03,0.20
2010,05,05,09,04,4.10
2010,05,05,09,05,0.30
2010,05,05,09,06,0.00
2010,05,05,09,07,1.00
2010,05,05,09,08,1.20
2010,05,05,09,09,0.00
2010,05,05,09,10,0.00
2010,05,05,09,11,2.30
2010,05,05,09,12,0.80
2010,05,05,09,13,1.10
2010,05,05,09,14,1.40
2010,05,05,09,15,0.30
2010,05,05,09,16,2.30
2010,05,05,09,17,3.20
2010,05,05,09,18,2.30
2010,05,05,09,19,3.30
2010,05,05,09,20,3.20
2010,05,05,09,21,2.60
2010,05,05,09,22,4.20
2010,05,05,09,23,6.90
2010,05,05,09,24,5.10
2010,05,05,09,25,6.50
2010,05,05,09,26,8.50
2010,05,05,09,27,9.80
2010,05,05,09,28,8.90
2010,05,05,09,29,6.30
2010,05,05,09,30,7.30
2010,05,05,09,31,4.90
2010,05,05,09,32,5.10
2010,05,05,09,33,10.80
2010,05,05,09,34,9.30
2010,05,05,09,35,9.10
2010,05,05,09,36,11.70
2010,05,05,09,37,9.30
2010,05,05,09,38,11.30
2010,05,05,09,39,11.30
2010,05,05,09,40,8.90
2010,05,05,09,41,6.60
2010,05,05,09,42,10.70
2010,05,05,09,43,10.70
2010,05,05,09,44,9.20
2010,05,05,09,45,12.30
2010,05,05,09,46,9.30
2010,05,05,09,47,9.90
2010,05,05,09,48,3.80
2010,05,05,09,49,5.60
2010,05,05,09,50,6.10
2010,05,05,09,51,8.30
2010,05,05,09,52,8.10
2010,05,05,09,53,3.90
2010,05,05,09,54,4.20
2010,05,05,09,55,6.70
2010,05,05,09,56,7.60
2010,05,05,09,57,8.50
2010,05,05,09,58,11.70
2010,05,05,09,59,6.20
2010,05,05,10,00,5.90
2010,05,05,10,01,11.30
2010,05,05,10,02,15.90
2010,05,05,10,03,8.30
2010,05,05,10,04,9.70
2010,05,05,10,05,13.70
2010,05,05,10,06,16.60
2010,05,05,10,07,15.40
2010,05,05,10,08,10.40
2010,05,05,10,09,5.40
2010,05,05,10,10,11.40
2010,05,05,10,11,12.30
2010,05,05,10,12,12.60
2010,05,05,10,13,11.70
2010,05,05,10,14,10.60
2010,05,05,10,15,10.40
2010,05,05,10,16,9.60
2010,05,05,10,17,5.40
2010,05,05,10,18,12.00
2010,05,05,10,19,14.40
2010,05,05,10,20,11.70
2010,05,05,10,21,14.20
2010,05,05,10,22,17.00
2010,05,05,10,23,13.30
2010,05,05,10,24,14.60
2010,05,05,10,25,5.80
2010,05,05,10,26,14.70
2010,05,05,10,27,9.20
2010,05,05,10,28,10.90
2010,05,05,10,29,9.30
2010,05,05,10,30,9.10
2010,05,05,10,31,8.10
2010,05,05,10,32,7.80
2010,05,05,10,33,11.20
2010,05,05,10,34,10.50
2010,05,05,10,35,10.60
2010,05,05,10,36,14.30
2010,05,05,10,37,11.50
2010,05,05,10,38,10.30
2010,05,05,10,39,10.20
2010,05,05,10,40,14.60
2010,05,05,10,41,10.70
2010,05,05,10,42,15.60
2010,05,05,10,43,10.30
2010,05,05,10,44,7.30
2010,05,05,10,45,10.70
2010,05,05,10,46,9.70
2010,05,05,10,47,6.90
2010,05,05,10,48,5.20
2010,05,05,10,49,3.40
2010,05,05,10,50,6.30
2010,05,05,10,51,8.70
2010,05,05,10,52,12.50
2010,05,05,10,53,9.40
2010,05,05,10,54,12.30
2010,05,05,10,55,9.80
2010,05,05,10,56,5.20
2010,05,05,10,57,6.90
2010,05,05,10,58,9.00
2010,05,05,10,59,10.50
2010,05,05,11,00,13.80
2010,05,05,11,01,8.40
2010,05,05,11,02,12.70
2010,05,05,11,03,11.60
2010,05,05,11,04,9.90
2010,05,05,11,05,8.70
2010,05,05,11,06,3.70
2010,05,05,11,07,11.40
2010,05,05,11,08,16.30
2010,05,05,11,09,13.90
2010,05,05,11,10,12.60
2010,05,05,11,11,15.90
2010,05,05,11,12,11.50
2010,05,05,11,13,7.00
2010,05,05,11,14,12.80
2010,05,05,11,15,15.20
2010,05,05,11,16,8.90
2010,05,05,11,17,14.50
2010,05,05,11,18,16.70
2010,05,05,11,19,10.10
2010,05,05,11,20,11.90
2010,05,05,11,21,10.70
2010,05,05,11,22,7.50
2010,05,05,11,23,9.70
2010,05,05,11,24,11.40
2010,05,05,11,25,5.60
2010,05,05,11,26,6.80
2010,05,05,11,27,11.40
2010,05,05,11,28,12.70
2010,05,05,11,29,14.70
2010,05,05,11,30,11.40
2010,05,05,11,31,9.70
2010,05,05,11,32,10.20
2010,05,05,11,33,9.60
2010,05,05,11,34,3.60
2010,05,05,11,35,6.50
2010,05,05,11,36,8.60
2010,05,05,11,37,10.30
2010,05,05,11,38,11.50
2010,05,05,11,39,16.80
2010,05,05,11,40,16.70
2010,05,05,11,41,14.40
2010,05,05,11,42,16.30
2010,05,05,11,43,10.30
2010,05,05,11,44,12.90
2010,05,05,11,45,12.30
2010,05,05,11,46,12.40
2010,05,05,11,47,9.20
2010,05,05,11,48,10.30
2010,05,05,11,49,13.40
2010,05,05,11,50,12.60
2010,05,05,11,51,11.30
2010,05,05,11,52,9.70
2010,05,05,11,53,9.80
2010,05,05,11,54,12.80
2010,05,05,11,55,7.90
2010,05,05,11,56,9.40
2010,05,05,11,57,17.70
2010,05,05,11,58,15.30
2010,05,05,11,59,10.10
2010,05,05,12,00,9.30
2010,05,05,12,01,14.60
2010,05,05,12,02,12.30
2010,05,05,12,03,14.20
2010,05,05,12,04,11.40
2010,05,05,12,05,13.40
2010,05,05,12,06,12.40
2010,05,05,12,07,13.00
2010,05,05,12,08,11.70
2010,05,05,12,09,12.90
2010,05,05,12,10,13.00
2010,05,05,12,11,13.70
2010,05,05,12,12,12.80
2010,05,05,12,13,12.60
2010,05,05,12,14,15.80
2010,05,05,12,15,18.90
2010,05,05,12,16,10.20
2010,05,05,12,17,11.60
2010,05,05,12,18,8.80
2010,05,05,12,19,10.20
2010,05,05,12,20,13.20
2010,05,05,12,21,6.00
2010,05,05,12,22,14.10
2010,05,05,12,23,10.70
2010,05,05,12,24,15.90
2010,05,05,12,25,7.90
2010,05,05,12,26,13.20
2010,05,05,12,27,15.00
2010,05,05,12,28,6.80
2010,05,05,12,29,15.60
2010,05,05,12,30,13.30
2010,05,05,12,31,13.20
2010,05,05,12,32,12.60
2010,05,05,12,33,5.60
2010,05,05,12,34,9.30
2010,05,05,12,35,6.60
2010,05,05,12,36,9.60
2010,05,05,12,37,11.50
2010,05,05,12,38,6.80
2010,05,05,12,39,10.80
2010,05,05,12,40,7.90
2010,05,05,12,41,10.90
2010,05,05,12,42,13.40
2010,05,05,12,43,10.10
2010,05,05,12,44,9.10
2010,05,05,12,45,9.00
2010,05,05,12,46,8.90
2010,05,05,12,47,12.10
2010,05,05,12,48,10.50
2010,05,05,12,49,11.50
2010,05,05,12,50,10.70
2010,05,05,12,51,9.50
2010,05,05,12,52,13.10
2010,05,05,12,53,9.30
2010,05,05,12,54,9.10
2010,05,05,12,55,8.00
2010,05,05,12,56,8.00
2010,05,05,12,57,10.10
2010,05,05,12,58,11.70
2010,05,05,12,59,11.00
2010,05,05,13,00,9.50
2010,05,05,13,01,12.60
2010,05,05,13,02,9.70
2010,05,05,13,03,9.60
2010,05,05,13,04,7.80
2010,05,05,13,05,3.60
2010,05,05,13,06,3.50
2010,05,05,13,07,10.40
2010,05,05,13,08,5.80
2010,05,05,13,09,10.90
2010,05,05,13,10,10.40
2010,05,05,13,11,8.60
2010,05,05,13,12,10.00
2010,05,05,13,13,7.80
2010,05,05,13,14,9.50
2010,05,05,13,15,6.20
2010,05,05,13,16,5.60
2010,05,05,13,17,8.00
2010,05,05,13,18,5.70
2010,05,05,13,19,4.50
2010,05,05,13,20,6.50
2010,05,05,13,21,7.70
2010,05,05,13,22,5.60
2010,05,05,13,23,5.30
2010,05,05,13,24,4.20
2010,05,05,13,25,7.20
2010,05,05,13,26,8.20
2010,05,05,13,27,8.80
2010,05,05,13,28,6.20
2010,05,05,13,29,6.20
2010,05,05,13,30,5.30
2010,05,05,13,31,5.10
2010,05,05,13,32,6.80
2010,05,05,13,33,4.40
2010,05,05,13,34,5.80
2010,05,05,13,35,10.90
2010,05,05,13,36,10.20
2010,05,05,13,37,7.30
2010,05,05,13,38,12.80
2010,05,05,13,39,13.10
2010,05,05,13,40,13.60
2010,05,05,13,41,15.80
2010,05,05,13,42,6.70
2010,05,05,13,43,5.40
2010,05,05,13,44,7.90
2010,05,05,13,45,7.00
2010,05,05,13,46,5.10
2010,05,05,13,47,8.90
2010,05,05,13,48,7.50
2010,05,05,13,49,9.10
2010,05,05,13,50,17.00
2010,05,05,13,51,10.30
2010,05,05,13,52,19.00
2010,05,05,13,53,11.80
2010,05,05,13,54,10.40
2010,05,05,13,55,14.60
2010,05,05,13,56,15.30
2010,05,05,13,57,14.90
2010,05,05,13,58,17.40
2010,05,05,13,59,15.40
2010,05,05,14,00,20.70
2010,05,05,14,01,18.00
2010,05,05,14,02,18.00
2010,05,05,14,03,15.70
2010,05,05,14,04,14.00
2010,05,05,14,05,13.40
2010,05,05,14,06,15.80
2010,05,05,14,07,13.60
2010,05,05,14,08,17.00
2010,05,05,14,09,13.60
2010,05,05,14,10,10.20
2010,05,05,14,11,7.70
2010,05,05,14,12,18.70
2010,05,05,14,13,13.20
2010,05,05,14,14,10.30
2010,05,05,14,15,7.40
2010,05,05,14,16,12.10
2010,05,05,14,17,13.40
2010,05,05,14,18,14.60
2010,05,05,14,19,12.80
2010,05,05,14,20,13.20
2010,05,05,14,21,11.60
2010,05,05,14,22,10.20
2010,05,05,14,23,14.80
2010,05,05,14,24,6.80
2010,05,05,14,25,4.00
2010,05,05,14,26,6.30
2010,05,05,14,27,8.00
2010,05,05,14,28,16.20
2010,05,05,14,29,13.50
2010,05,05,14,30,6.70
2010,05,05,14,31,6.60
2010,05,05,14,32,6.80
2010,05,05,14,33,15.60
2010,05,05,14,34,17.90
2010,05,05,14,35,8.00
2010,05,05,14,36,5.80
2010,05,05,14,37,19.20
2010,05,05,14,38,11.50
2010,05,05,14,39,12.80
2010,05,05,14,40,17.30
2010,05,05,14,41,12.30
2010,05,05,14,42,13.90
2010,05,05,14,43,9.40
2010,05,05,14,44,12.60
2010,05,05,14,45,12.90
2010,05,05,14,46,14.70
2010,05,05,14,47,12.90
2010,05,05,14,48,10.20
2010,05,05,14,49,9.80
2010,05,05,14,50,8.40
2010,05,05,14,51,11.70
2010,05,05,14,52,13.00
2010,05,05,14,53,9.70
2010,05,05,14,54,8.60
2010,05,05,14,55,17.70
2010,05,05,14,56,11.40
2010,05,05,14,57,12.70
2010,05,05,14,58,14.10
2010,05,05,14,59,17.50
2010,05,05,15,00,19.50
2010,05,05,15,01,19.20
2010,05,05,15,02,16.90
2010,05,05,15,03,18.90
2010,05,05,15,04,16.70
2010,05,05,15,05,15.30
2010,05,05,15,06,15.30
2010,05,05,15,07,16.00
2010,05,05,15,08,11.70
2010,05,05,15,09,15.90
2010,05,05,15,10,14.60
2010,05,05,15,11,16.00
2010,05,05,15,12,21.60
2010,05,05,15,13,15.30
2010,05,05,15,14,11.70
2010,05,05,15,15,14.60
2010,05,05,15,16,12.80
2010,05,05,15,17,15.30
2010,05,05,15,18,10.20
2010,05,05,15,19,8.00
2010,05,05,15,20,10.00
2010,05,05,15,21,14.00
2010,05,05,15,22,8.50
2010,05,05,15,23,10.20
2010,05,05,15,24,11.70
2010,05,05,15,25,16.30
2010,05,05,15,26,14.70
2010,05,05,15,27,18.00
2010,05,05,15,28,14.40
2010,05,05,15,29,17.90
2010,05,05,15,30,17.80
2010,05,05,15,31,17.60
2010,05,05,15,32,21.10
2010,05,05,15,33,18.30
2010,05,05,15,34,17.70
2010,05,05,15,35,20.10
2010,05,05,15,36,17.20
2010,05,05,15,37,18.70
2010,05,05,15,38,22.20
2010,05,05,15,39,19.20
2010,05,05,15,40,20.40
2010,05,05,15,41,11.30
2010,05,05,15,42,17.50
2010,05,05,15,43,16.50
2010,05,05,15,44,19.10
2010,05,05,15,45,19.20
2010,05,05,15,46,21.80
2010,05,05,15,47,16.90
2010,05,05,15,48,18.00
2010,05,05,15,49,19.90
2010,05,05,15,50,16.20
2010,05,05,15,51,17.70
2010,05,05,15,52,13.70
2010,05,05,15,53,13.60
2010,05,05,15,54,19.00
2010,05,05,15,55,22.70
2010,05,05,15,56,15.20
2010,05,05,15,57,16.60
2010,05,05,15,58,15.20
2010,05,05,15,59,12.40
2010,05,05,16,00,9.50
2010,05,05,16,01,6.80
2010,05,05,16,02,7.30
2010,05,05,16,03,7.00
2010,05,05,16,04,5.50
2010,05,05,16,05,6.10
2010,05,05,16,06,6.30
2010,05,05,16,07,2.10
2010,05,05,16,08,3.00
2010,05,05,16,09,2.60
2010,05,05,16,10,2.30
2010,05,05,16,11,4.10
2010,05,05,16,12,2.30
2010,05,05,16,13,6.50
2010,05,05,16,14,7.20
2010,05,05,16,15,9.60
2010,05,05,16,16,10.80
2010,05,05,16,17,9.90
2010,05,05,16,18,6.80
2010,05,05,16,19,6.50
2010,05,05,16,20,9.50
2010,05,05,16,21,13.30
2010,05,05,16,22,9.70
2010,05,05,16,23,10.10
2010,05,05,16,24,9.00
2010,05,05,16,25,7.50
2010,05,05,16,26,8.40
2010,05,05,16,27,10.50
2010,05,05,16,28,10.20
2010,05,05,16,29,9.20
2010,05,05,16,30,9.10
2010,05,05,16,31,6.30
2010,05,05,16,32,8.30
2010,05,05,16,33,8.00
2010,05,05,16,34,7.90
2010,05,05,16,35,5.70
2010,05,05,16,36,9.10
2010,05,05,16,37,6.60
2010,05,05,16,38,6.70
2010,05,05,16,39,7.90
2010,05,05,16,40,10.20
2010,05,05,16,41,6.40
2010,05,05,16,42,12.30
2010,05,05,16,43,9.00
2010,05,05,16,44,9.70
2010,05,05,16,45,14.70
2010,05,05,16,46,14.90
2010,05,05,16,47,14.80
2010,05,05,16,48,10.00
2010,05,05,16,49,11.30
2010,05,05,16,50,5.10
2010,05,05,16,51,3.10
2010,05,05,16,52,9.90
2010,05,05,16,53,12.30
2010,05,05,16,54,12.70
2010,05,05,16,55,12.70
2010,05,05,16,56,7.00
2010,05,05,16,57,2.80
2010,05,05,16,58,7.00
2010,05,05,16,59,9.10
2010,05,05,17,00,9.00
2010,05,05,17,01,9.30
2010,05,05,17,02,13.80
2010,05,05,17,03,11.40
2010,05,05,17,04,9.30
2010,05,05,17,05,12.50
2010,05,05,17,06,11.60
2010,05,05,17,07,13.90
2010,05,05,17,08,16.80
2010,05,05,17,09,17.40
2010,05,05,17,10,8.10
2010,05,05,17,11,15.70
2010,05,05,17,12,9.10
2010,05,05,17,13,11.40
2010,05,05,17,14,13.10
2010,05,05,17,15,10.90
2010,05,05,17,16,11.40
2010,05,05,17,17,11.70
2010,05,05,17,18,9.50
2010,05,05,17,19,8.30
2010,05,05,17,20,11.70
2010,05,05,17,21,8.80
2010,05,05,17,22,11.00
2010,05,05,17,23,11.90
2010,05,05,17,24,10.70
2010,05,05,17,25,8.00
2010,05,05,17,26,11.40
2010,05,05,17,27,12.20
2010,05,05,17,28,14.10
2010,05,05,17,29,10.70
2010,05,05,17,30,11.00
2010,05,05,17,31,10.80
2010,05,05,17,32,10.40
2010,05,05,17,33,11.60
2010,05,05,17,34,11.80
2010,05,05,17,35,10.00
2010,05,05,17,36,8.70
2010,05,05,17,37,9.30
2010,05,05,17,38,8.90
2010,05,05,17,39,9.50
2010,05,05,17,40,9.30
2010,05,05,17,41,7.10
2010,05,05,17,42,7.90
2010,05,05,17,43,9.30
2010,05,05,17,44,10.70
2010,05,05,17,45,12.10
2010,05,05,17,46,16.70
2010,05,05,17,47,15.90
2010,05,05,17,48,12.60
2010,05,05,17,49,11.40
2010,05,05,17,50,16.70
2010,05,05,17,51,16.30
2010,05,05,17,52,11.60